Wind_Speed
44 40 32 29 30 31 28 27 20 21 21 24 19 17 16 15 12 19 24 31 33 39 44 36 28 22 17 13 8 3 3 2 4 4 4 3 4 5 5 6 6 6 6 6 5 1 3 5 5
39 38 37 34 30 30 31 30 20 20 22 24 19 15 15 8 10 18 22 29 32 36 43 34 25 20 14 9 6 4 2 2 2 2 3 3 2 2 2 2 2 3 6 10 10 9 9 9 12
48 41 34 33 32 29 31 28 20 22 22 19 16 15 14 5 10 15 21 26 31 34 39 35 25 20 13 10 5 4 4 3 3 3 4 4 4 4 8 12 12 14 15 14 14 16 19 20 22
53 41 38 36 31 32 34 27 19 23 22 16 16 11 11 4 9 14 21 23 30 34 41 35 25 19 15 14 13 11 9 10 8 9 12 15 17 20 19 19 20 21 20 19 21 22 25 26 24
50 46 40 40 36 35 36 30 23 19 17 15 13 11 8 3 7 14 17 20 25 31 37 30 24 20 20 22 22 21 21 21 21 22 22 23 24 25 25 23 22 21 24 26 26 26 26 25 24
48 48 47 41 38 33 37 35 27 24 24 20 15 13 9 5 6 9 17 16 21 26 30 32 23 22 26 26 27 28 29 30 28 26 25 25 26 26 25 24 25 27 28 28 27 27 27 28 29
55 52 52 50 44 40 36 37 30 27 29 23 16 11 9 7 4 11 15 13 17 23 25 29 28 27 27 28 27 28 30 32 32 31 29 28 27 26 26 27 27 28 28 27 26 26 26 27 31
50 52 51 47 48 46 42 35 31 28 30 25 21 17 13 11 6 9 11 9 13 17 20 26 25 29 30 29 30 30 31 33 33 32 31 28 27 28 27 26 27 24 24 23 25 26 27 28 32
47 50 53 47 47 41 38 33 30 30 28 27 27 21 14 12 7 7 9 8 9 11 14 17 21 27 29 31 28 30 32 33 33 32 29 25 26 27 26 20 20 24 24 26 26 33 29 30 31
59 57 52 48 47 45 41 39 33 31 27 27 25 17 15 15 13 7 8 13 8 7 7 11 15 19 23 26 28 27 27 26 29 29 31 26 26 26 25 25 25 23 25 25 28 32 30 29 30
65 61 57 54 48 52 46 36 37 35 30 32 30 25 17 17 14 16 13 12 6 7 7 6 10 14 16 17 20 18 20 22 19 22 27 28 22 20 19 20 20 23 26 24 27 29 31 30 33
68 67 62 61 51 48 45 43 43 38 35 34 32 29 20 21 17 17 16 11 8 8 9 8 4 6 9 11 12 14 13 17 18 18 17 19 20 19 17 15 19 23 26 26 28 30 31 33 32
68 63 64 61 54 54 49 44 40 40 38 39 30 27 22 22 21 16 17 16 9 10 9 12 10 6 2 3 4 6 9 11 15 13 14 15 17 19 18 20 20 21 23 27 29 34 33 34 34
71 68 66 60 57 57 50 46 40 41 40 37 35 31 26 27 23 22 21 21 22 16 12 12 13 11 9 5 6 6 4 4 8 12 14 17 19 21 21 20 20 21 25 28 31 33 34 35 36
78 73 70 67 63 64 52 52 48 45 42 38 35 33 33 28 29 25 26 26 24 18 14 12 16 14 14 13 10 11 14 15 15 17 17 18 21 21 22 24 26 28 28 28 31 35 35 36 37
72 68 69 68 67 63 61 58 48 45 44 40 40 37 37 29 27 28 32 28 28 20 18 17 16 18 18 17 14 14 15 15 15 18 18 20 22 23 24 24 27 28 30 32 33 38 39 40 40
70 68 68 71 66 66 62 63 59 50 49 50 44 42 42 37 35 34 30 30 30 29 23 21 21 20 23 20 20 18 21 19 19 19 21 23 26 28 28 27 28 29 29 32 37 41 40 47 43
68 71 76 72 71 70 65 65 63 53 53 50 45 43 45 41 36 37 34 32 39 33 27 28 28 24 23 26 26 24 26 27 27 26 25 27 28 31 32 32 32 30 30 34 43 42 44 49 44
73 72 70 77 72 68 70 69 65 55 57 50 44 45 48 44 34 35 35 38 43 34 30 32 33 27 25 25 28 26 30 29 31 32 33 31 34 36 37 37 36 35 34 40 48 44 48 50 49
74 77 71 66 72 78 80 76 68 62 60 55 51 48 49 46 43 45 42 40 42 40 42 42 36 31 30 30 33 34 33 35 33 33 35 36 38 39 42 41 45 41 38 44 45 49 51 55 54
76 73 72 72 69 62 70 71 68 66 64 58 57 58 50 48 49 47 43 44 48 46 42 44 35 33 34 36 40 39 39 43 37 40 38 40 42 43 42 45 49 45 45 54 49 54 51 56 57
81 79 77 72 76 66 62 67 71 68 62 59 62 63 59 55 46 47 45 47 52 46 44 47 45 41 44 43 43 46 51 50 46 43 42 43 44 45 45 44 50 54 53 56 57 59 56 60 66
89 85 81 78 73 73 65 60 70 66 66 70 70 67 60 61 56 52 52 49 52 51 48 46 47 56 49 46 50 50 52 48 48 52 54 48 49 51 55 55 50 56 58 61 63 63 62 65 68
95 92 88 83 81 79 69 61 65 68 77 78 74 69 65 70 62 57 57 55 55 50 55 54 53 56 51 53 56 57 58 57 59 59 56 50 50 55 62 62 61 58 58 61 65 63 67 70 72
99 95 95 90 87 73 73 67 54 67 77 79 78 76 72 77 64 61 62 60 59 58 62 59 58 65 68 65 67 65 63 66 62 63 60 59 55 64 67 64 60 60 61 66 64 72 72 74 77
100 100 96 93 89 85 81 70 57 70 72 82 83 82 79 77 70 66 70 66 63 70 69 66 63 67 67 70 68 68 68 72 66 65 64 65 66 66 67 63 67 68 74 70 71 75 77 78 79
105 102 99 97 94 91 88 78 71 72 69 71 83 85 87 85 76 72 75 76 70 73 73 69 62 70 76 73 71 73 76 69 66 63 67 67 67 66 70 72 75 77 79 75 79 83 83 81 86
108 106 107 106 101 96 89 83 79 79 80 73 74 84 88 89 83 80 83 82 74 77 75 77 69 76 79 81 83 79 77 71 70 68 70 72 72 76 76 78 82 85 82 83 87 83 82 85 90
111 110 109 106 104 101 96 90 86 88 86 81 77 82 86 87 83 83 85 87 82 81 83 85 79 82 83 83 85 80 76 76 76 78 78 79 84 84 80 81 80 81 83 86 88 85 86 91 93
115 114 115 114 111 108 105 96 94 93 93 88 85 83 88 90 91 87 88 93 91 86 89 90 86 80 84 85 83 80 76 77 83 81 80 80 84 87 86 88 86 85 87 93 91 93 93 93 97
Wind_Direction
226 226 221 220 225 231 242 236 232 236 233 254 269 283 306 326 341 353 359 353 352 353 351 349 348 341 342 330 313 328 342 54 88 111 117 157 186 190 218 250 273 287 292 295 300 292 127 134 125
221 220 229 233 234 235 240 235 244 239 237 246 267 297 301 323 328 346 350 356 355 359 355 353 357 354 355 1 336 316 331 354 79 130 147 162 175 150 165 181 150 95 109 115 122 120 110 93 71
227 229 222 231 233 234 227 231 249 248 242 250 276 289 294 308 338 343 350 355 357 357 358 1 3 9 14 31 44 56 46 53 69 112 98 110 111 116 104 102 104 105 105 104 103 89 78 67 59
226 227 228 229 224 229 225 229 243 241 247 253 268 261 297 299 325 330 346 356 358 358 359 2 9 18 35 50 62 74 89 85 85 85 89 99 99 99 100 103 102 103 95 88 81 72 66 58 52
228 225 221 228 230 226 228 236 241 247 241 243 254 264 300 299 353 324 349 0 358 2 4 12 15 31 50 61 68 72 78 82 88 92 98 100 101 100 98 100 96 88 79 74 65 61 56 52 46
225 234 225 224 223 222 230 232 243 242 245 256 261 264 284 264 333 358 358 358 0 2 8 24 25 45 62 66 74 81 83 84 88 92 92 91 89 88 88 85 79 78 73 68 64 59 57 52 48
229 232 227 228 225 228 232 231 244 241 241 248 254 262 288 235 5 354 346 354 5 1 10 14 34 59 66 72 77 83 85 84 84 82 83 81 76 77 71 74 77 72 71 66 66 59 50 40 31
222 221 226 228 229 234 231 235 235 230 235 246 253 270 291 219 244 330 333 345 1 359 9 28 48 46 53 70 75 81 79 79 76 72 69 69 70 71 69 68 66 63 59 61 46 31 20 24 25
210 224 228 233 231 227 231 233 231 232 232 244 248 267 266 234 252 276 322 331 344 358 8 20 36 36 53 60 64 71 71 75 69 65 63 65 69 64 64 64 54 48 46 36 33 30 23 20 19
226 225 232 228 226 238 235 237 236 234 240 253 246 258 254 229 238 287 317 304 324 349 11 11 31 38 53 56 64 71 62 65 56 60 55 57 66 63 62 59 56 48 33 28 23 20 14 11 8
228 230 236 229 240 237 229 228 228 235 240 255 245 258 250 238 249 263 285 278 288 335 327 343 24 24 48 55 66 68 59 49 50 47 47 42 39 43 43 41 31 28 25 19 12 10 6 3 2
227 231 228 233 244 226 222 228 232 241 247 241 248 250 237 248 239 255 279 268 262 299 314 319 326 35 37 67 59 55 62 46 39 34 30 29 30 28 19 17 8 15 11 6 4 359 360 355 355
222 223 223 236 238 218 225 232 237 238 238 241 242 230 235 241 250 245 268 270 258 281 297 309 295 299 14 39 68 70 51 25 30 22 8 7 7 9 5 2 356 352 351 352 351 352 352 350 348
219 219 226 233 236 222 228 233 236 236 235 239 238 237 245 240 240 244 253 266 284 271 262 287 289 283 299 288 317 335 24 12 354 355 351 347 346 348 350 344 332 329 333 340 342 341 343 340 339
221 222 229 232 234 231 231 232 236 236 231 234 234 243 249 242 231 242 246 257 277 259 262 271 290 286 297 288 281 296 309 307 310 314 322 333 334 328 327 326 324 319 319 322 329 329 328 330 331
217 223 224 227 228 231 237 237 240 232 228 232 234 244 242 239 247 241 245 257 268 269 255 264 276 288 288 287 273 283 283 286 300 305 305 302 306 312 310 314 317 313 309 309 316 327 322 328 325
215 219 218 221 227 233 237 234 237 241 238 240 237 241 241 241 250 240 239 249 257 267 258 258 263 270 284 276 287 298 298 288 281 283 292 299 302 302 301 305 310 315 310 315 318 323 320 324 319
210 213 219 222 224 227 228 229 234 239 235 240 234 235 239 249 246 242 247 251 260 258 259 258 262 263 275 275 280 291 297 298 293 290 287 297 301 300 299 296 305 301 310 311 320 319 320 322 316
218 213 218 221 221 226 228 228 237 231 242 228 229 231 237 249 245 244 250 257 262 256 267 267 263 263 264 285 277 282 294 299 301 300 292 292 293 297 292 293 295 297 300 312 321 315 316 320 320
219 224 221 220 223 224 227 232 236 242 243 237 235 233 241 247 244 250 257 251 254 266 269 264 253 257 263 274 273 279 284 286 290 295 296 293 288 292 293 291 297 295 295 305 312 316 312 318 321
221 223 225 224 221 221 223 224 229 235 240 234 237 238 247 238 240 250 250 247 253 261 263 262 249 252 262 270 263 267 275 286 278 286 288 291 289 293 292 289 302 296 300 308 309 313 307 314 317
220 223 227 227 227 222 225 223 227 229 237 234 236 238 247 246 246 244 246 251 253 256 264 259 256 251 262 262 262 270 275 283 276 279 283 287 284 295 295 298 294 298 300 305 305 309 305 307 310
220 222 227 230 229 225 226 227 227 226 230 233 230 234 242 240 237 248 239 247 254 257 253 250 264 262 254 260 265 272 278 280 279 281 281 278 282 288 292 290 294 296 296 303 302 305 304 302 308
221 225 227 228 229 227 226 223 231 225 227 232 233 234 239 235 243 240 234 250 252 250 250 248 257 259 260 267 272 274 276 282 288 285 283 284 285 288 292 291 288 292 295 301 300 300 304 305 305
225 225 229 230 230 231 234 225 234 228 229 229 234 236 237 236 241 236 236 243 247 246 249 253 253 256 260 266 269 270 272 281 284 283 277 277 284 285 289 291 292 296 294 298 294 300 302 303 303
227 227 230 233 232 232 234 230 217 244 234 230 232 234 238 237 240 234 238 238 243 244 247 251 255 258 255 262 263 267 270 279 280 280 277 278 279 284 288 286 293 296 299 297 297 298 299 301 301
228 231 233 233 234 236 233 234 221 237 245 241 238 237 237 237 240 241 238 240 242 244 246 246 251 251 258 259 262 268 275 277 279 279 280 280 282 287 286 287 290 294 295 296 297 301 298 299 303
228 230 232 235 235 237 235 235 232 232 243 243 244 241 241 240 241 242 239 241 244 244 246 250 257 251 256 259 264 268 273 275 277 280 280 281 285 287 288 286 289 291 293 298 298 298 297 298 302
229 231 234 237 237 237 236 235 237 235 241 245 245 243 242 245 244 243 239 239 244 246 246 247 254 254 256 259 264 267 272 275 277 277 278 278 280 282 287 290 292 292 290 296 296 297 295 295 298
230 231 232 233 234 235 235 234 237 237 240 244 245 246 242 244 243 243 241 242 245 247 248 251 255 254 256 258 262 264 269 275 276 275 278 279 281 281 284 289 289 290 288 289 292 290 293 295 297
Height
10896 10900 10902 10905 10908 10910 10914 10915 10916 10918 10919 10920 10922 10922 10922 10920 10918 10915 10912 10908 10902 10895 10888 10880 10873 10868 10864 10861 10860 10859 10859 10861 10861 10862 10862 10862 10863 10863 10864 10865 10865 10866 10866 10866 10866 10866 10865 10865 10866
10891 10895 10898 10900 10902 10907 10910 10911 10913 10915 10916 10918 10920 10921 10920 10918 10916 10914 10911 10907 10902 10896 10888 10879 10872 10867 10862 10860 10859 10859 10859 10859 10860 10861 10861 10862 10862 10863 10864 10864 10864 10865 10864 10865 10866 10867 10867 10866 10865
10887 10891 10893 10895 10898 10903 10906 10908 10910 10913 10914 10915 10918 10919 10918 10916 10915 10913 10911 10906 10901 10896 10889 10880 10872 10867 10863 10860 10860 10859 10859 10859 10859 10860 10860 10861 10862 10862 10863 10864 10865 10866 10867 10867 10868 10868 10867 10866 10865
10881 10886 10887 10890 10895 10899 10902 10905 10908 10910 10911 10913 10916 10916 10916 10915 10914 10912 10910 10906 10901 10896 10889 10881 10874 10869 10865 10861 10860 10859 10859 10859 10859 10859 10860 10861 10862 10863 10865 10866 10867 10868 10869 10869 10868 10868 10868 10866 10865
10874 10879 10881 10885 10891 10896 10898 10902 10905 10907 10909 10911 10912 10913 10914 10913 10912 10911 10909 10906 10902 10898 10891 10883 10877 10871 10865 10863 10861 10860 10860 10860 10861 10862 10864 10865 10866 10867 10868 10870 10870 10870 10870 10870 10870 10869 10869 10868 10866
10867 10871 10876 10879 10886 10891 10894 10898 10901 10904 10906 10908 10909 10911 10912 10912 10911 10909 10908 10906 10903 10899 10894 10888 10880 10875 10869 10866 10865 10864 10864 10865 10867 10868 10869 10870 10870 10872 10873 10873 10872 10871 10871 10871 10871 10871 10870 10869 10866
10860 10864 10868 10874 10880 10885 10890 10894 10897 10900 10902 10904 10906 10908 10909 10909 10909 10908 10908 10906 10903 10900 10896 10891 10885 10879 10874 10872 10870 10870 10869 10870 10872 10873 10873 10874 10874 10874 10874 10873 10873 10873 10873 10873 10872 10871 10870 10867 10864
10852 10857 10862 10868 10874 10880 10885 10888 10893 10896 10897 10900 10903 10905 10906 10907 10907 10908 10906 10906 10904 10901 10898 10894 10889 10885 10881 10877 10876 10875 10873 10874 10874 10875 10875 10877 10876 10875 10875 10874 10874 10875 10875 10873 10872 10870 10868 10865 10862
10844 10851 10856 10861 10868 10875 10880 10883 10888 10891 10893 10897 10899 10901 10903 10905 10905 10906 10905 10905 10903 10901 10899 10896 10892 10889 10886 10881 10880 10878 10877 10876 10876 10877 10877 10878 10877 10876 10876 10876 10876 10875 10874 10873 10871 10869 10867 10863 10861
10837 10843 10848 10855 10863 10870 10874 10879 10883 10886 10890 10893 10894 10897 10898 10901 10902 10903 10902 10903 10902 10901 10899 10898 10894 10891 10889 10885 10883 10881 10880 10879 10878 10879 10879 10879 10879 10878 10877 10877 10876 10875 10874 10872 10869 10866 10864 10860 10858
10828 10833 10840 10848 10854 10861 10866 10872 10876 10880 10885 10887 10890 10892 10894 10896 10898 10900 10900 10900 10899 10898 10898 10897 10895 10893 10890 10888 10886 10884 10883 10883 10882 10880 10879 10879 10879 10878 10878 10877 10876 10875 10873 10870 10868 10865 10862 10858 10854
10816 10824 10832 10838 10846 10852 10860 10864 10870 10874 10878 10881 10885 10888 10889 10891 10894 10896 10897 10896 10897 10896 10896 10895 10894 10892 10890 10888 10887 10885 10884 10883 10881 10880 10881 10880 10880 10879 10878 10876 10875 10871 10869 10868 10865 10862 10858 10855 10851
10808 10814 10822 10828 10837 10845 10850 10857 10863 10867 10870 10873 10879 10882 10884 10886 10888 10891 10893 10893 10893 10894 10893 10893 10891 10890 10889 10888 10886 10884 10882 10881 10880 10881 10880 10879 10878 10877 10875 10873 10871 10869 10867 10864 10860 10858 10854 10850 10847
10795 10804 10810 10818 10827 10836 10843 10849 10853 10858 10863 10867 10873 10876 10879 10880 10883 10885 10887 10888 10889 10889 10889 10889 10888 10887 10886 10885 10884 10883 10881 10880 10880 10879 10877 10876 10875 10873 10871 10870 10868 10865 10862 10859 10855 10851 10849 10845 10841
10784 10795 10801 10809 10818 10827 10835 10840 10841 10851 10855 10861 10866 10869 10872 10875 10878 10880 10881 10883 10884 10884 10885 10885 10885 10884 10883 10882 10881 10880 10879 10879 10878 10876 10875 10873 10872 10870 10868 10866 10863 10860 10857 10855 10851 10847 10844 10841 10836
10773 10783 10795 10800 10809 10818 10826 10829 10836 10843 10848 10854 10858 10862 10865 10870 10873 10874 10875 10877 10879 10880 10880 10880 10880 10880 10880 10880 10879 10878 10877 10876 10875 10874 10873 10872 10871 10868 10866 10863 10860 10857 10853 10850 10847 10841 10838 10835 10830
10767 10778 10785 10791 10797 10804 10813 10816 10826 10835 10840 10845 10851 10855 10860 10863 10866 10867 10870 10873 10874 10875 10875 10875 10875 10875 10876 10875 10875 10874 10874 10873 10871 10869 10869 10867 10866 10864 10862 10859 10856 10852 10849 10845 10841 10836 10831 10828 10823
10763 10769 10770 10774 10782 10789 10799 10806 10816 10825 10832 10837 10844 10849 10853 10856 10859 10863 10865 10867 10868 10869 10869 10869 10869 10869 10870 10870 10870 10869 10868 10867 10866 10864 10862 10861 10860 10858 10856 10853 10850 10846 10843 10839 10834 10829 10824 10820 10814
10743 10750 10754 10763 10774 10784 10789 10795 10803 10816 10824 10829 10834 10840 10844 10848 10855 10857 10858 10860 10860 10862 10863 10864 10864 10864 10863 10864 10864 10863 10863 10861 10860 10858 10857 10855 10854 10852 10848 10846 10843 10840 10836 10833 10828 10822 10816 10811 10805
10729 10734 10743 10753 10763 10771 10778 10787 10796 10808 10814 10821 10826 10832 10835 10842 10846 10848 10850 10852 10853 10854 10856 10857 10857 10857 10857 10858 10858 10857 10856 10855 10854 10852 10850 10848 10845 10844 10842 10839 10836 10834 10830 10825 10821 10815 10808 10802 10795
10719 10727 10732 10740 10749 10759 10767 10779 10786 10791 10802 10811 10818 10821 10827 10830 10835 10838 10840 10843 10846 10846 10848 10849 10850 10850 10851 10851 10850 10849 10848 10848 10846 10845 10843 10841 10839 10837 10834 10831 10829 10825 10822 10817 10813 10808 10800 10793 10787
10706 10712 10718 10727 10735 10749 10756 10770 10779 10784 10796 10805 10807 10811 10814 10818 10824 10827 10830 10833 10834 10836 10841 10843 10843 10841 10841 10843 10841 10840 10840 10839 10839 10836 10834 10832 10830 10827 10825 10821 10818 10815 10811 10807 10803 10798 10792 10784 10777
10692 10698 10705 10715 10723 10735 10750 10762 10767 10778 10785 10789 10790 10796 10799 10803 10810 10814 10817 10819 10825 10829 10830 10833 10833 10831 10830 10832 10832 10830 10830 10829 10829 10826 10823 10821 10819 10818 10816 10813 10809 10805 10800 10796 10792 10788 10781 10775 10768
10680 10687 10693 10699 10708 10725 10742 10755 10754 10770 10768 10771 10775 10783 10785 10790 10796 10801 10806 10809 10814 10816 10819 10820 10821 10820 10820 10820 10821 10820 10818 10819 10820 10817 10814 10811 10809 10806 10804 10802 10799 10795 10791 10785 10780 10775 10769 10763 10756
10667 10674 10677 10684 10699 10726 10728 10745 10753 10752 10750 10755 10760 10765 10770 10775 10782 10788 10795 10798 10800 10803 10805 10807 10808 10807 10808 10809 10809 10809 10808 10807 10809 10807 10804 10801 10799 10796 10792 10789 10787 10783 10778 10773 10767 10762 10756 10750 10742
10653 10657 10669 10677 10691 10706 10712 10734 10752 10726 10735 10739 10745 10749 10757 10763 10767 10772 10777 10782 10785 10786 10790 10794 10794 10792 10795 10796 10796 10796 10796 10795 10795 10795 10793 10791 10787 10784 10782 10777 10772 10768 10764 10758 10753 10748 10742 10735 10727
10639 10645 10657 10664 10673 10684 10703 10720 10729 10722 10720 10727 10730 10736 10739 10745 10753 10758 10761 10767 10771 10771 10774 10779 10781 10782 10784 10784 10783 10783 10784 10783 10783 10782 10781 10778 10774 10771 10768 10764 10759 10754 10748 10744 10739 10733 10726 10718 10711
10615 10628 10629 10641 10656 10668 10692 10705 10713 10714 10704 10711 10713 10717 10722 10730 10741 10742 10747 10752 10755 10758 10760 10764 10769 10771 10770 10772 10772 10771 10771 10769 10770 10769 10768 10764 10760 10757 10753 10749 10744 10740 10734 10728 10723 10717 10710 10702 10695
10601 10612 10621 10630 10639 10653 10671 10688 10693 10698 10696 10695 10699 10700 10705 10712 10722 10726 10731 10734 10738 10742 10745 10748 10753 10755 10757 10757 10759 10760 10758 10756 10756 10755 10753 10749 10745 10740 10737 10733 10728 10723 10718 10712 10706 10700 10693 10686 10679
10577 10588 10594 10601 10614 10627 10640 10671 10677 10679 10682 10684 10686 10688 10693 10696 10704 10709 10715 10718 10722 10725 10728 10731 10736 10738 10740 10741 10745 10745 10743 10742 10741 10739 10736 10733 10729 10723 10721 10716 10711 10706 10700 10695 10688 10682 10676 10669 10661